Location: Unspecified
(17.6330°N, 0.0000°E)
Time: 03:08:54
(UTC+00:00)

Courier 1B Rocket - Pass Details

Date: 01 July 2019
Orbit: 920 x 1202 km, 28.2° (Epoch: 21 July)

Event Time Altitude Azimuth Distance (km) Brightness Sun altitude
Exits shadow 00:28:36 10° 59° (ENE) 3,004 7.8 -48.8°
Drops below altitude 10° 00:28:44 10° 60° (ENE) 3,044 7.8 -48.8°
Sets 00:31:29 0° 64° (ENE) 3,948 8.5 -48.7°
